Groton, CT

8:31 PM EST on February 10, 2016 (GMT -0500)
Groton-New London

Weather History for KGON - August, 2011

Change the Weather History Date:

Wednesday, August 24, 2011

  Actual Average Record
Temperature  
Mean Temperature 68 °F -  
Max Temperature 78 °F 77 °F 87 °F (1969)
Min Temperature 60 °F 58 °F 45 °F (1971)
Cooling Degree Days 4    
Growing Degree Days 18 (Base 50)    
Moisture  
Dew Point 61 °F    
Average Humidity 74    
Maximum Humidity 93    
Minimum Humidity 58    
Precipitation  
Precipitation 0.00 in - - ()
Sea Level Pressure  
Sea Level Pressure 30.06 in    
Wind  
Wind Speed 6 mph (SSW)    
Max Wind Speed 16 mph    
Max Gust Speed -    
Visibility 10 miles    
Events      
Averages and records for this station are not official NWS values.
T = Trace of Precipitation, MM = Missing Value Source: NWS Daily Summary

Daily Weather History Graph

Daily Weather History Graph

Search for Another Location

Airport or City:

Trip Planner

Search our weather history database for the weather conditions in past years. The results will help you decide how hot, cold, wet, or windy it might be!

Date:

Astronomy

Aug. 24, 2011 Rise Set
Actual Time 6:06 AM EDT 7:34 PM EDT
Civil Twilight 5:37 AM EDT 8:03 PM EDT
Nautical Twilight 5:02 AM EDT 8:37 PM EDT
Astronomical Twilight 4:25 AM EDT 9:14 PM EDT
Moon 1:00 AM EDT (8/24) 4:23 PM EDT (8/24)
Length of Visible Light 14h 26m
Length of Day
13h 28m
Waning Crescent, 24% of the Moon is Illuminated
Aug 24
Waning Crescent
Aug 28
New
Sep 4
First Quarter
Sep 12
Full
Sep 20
Last Quarter

Hourly Weather History & Observations

Time (EDT) Temp. Dew Point Humidity Pressure Visibility Wind Dir Wind Speed Gust Speed Precip Events Conditions
12:56 AM 68.0 °F 59.0 °F 73% 30.08 in 10.0 mi Calm Calm - N/A   Clear
1:56 AM 64.0 °F 59.0 °F 84% 30.08 in 10.0 mi Calm Calm - N/A   Clear
2:56 AM 63.0 °F 59.0 °F 87% 30.07 in 10.0 mi Calm Calm - N/A   Clear
3:56 AM 61.0 °F 57.9 °F 90% 30.07 in 10.0 mi Calm Calm - N/A   Clear
4:56 AM 61.0 °F 57.9 °F 90% 30.07 in 10.0 mi Calm Calm - N/A   Clear
5:56 AM 60.1 °F 57.0 °F 90% 30.08 in 10.0 mi Calm Calm - N/A   Clear
6:56 AM 61.0 °F 59.0 °F 93% 30.09 in 10.0 mi Calm Calm - N/A   Clear
7:56 AM 71.1 °F 64.9 °F 81% 30.10 in 10.0 mi SW 10.4 mph - N/A   Clear
8:56 AM 72.0 °F 61.0 °F 68% 30.11 in 10.0 mi SW 9.2 mph - N/A   Clear
9:56 AM 73.9 °F 60.1 °F 62% 30.12 in 10.0 mi WSW 11.5 mph - N/A   Clear
10:56 AM 75.0 °F 61.0 °F 62% 30.12 in 10.0 mi SW 11.5 mph - N/A   Clear
11:56 AM 73.9 °F 59.0 °F 59% 30.10 in 10.0 mi SW 6.9 mph - N/A   Partly Cloudy
12:56 PM 73.9 °F 60.1 °F 62% 30.09 in 10.0 mi South 4.6 mph - N/A   Clear
1:56 PM 77.0 °F 61.0 °F 58% 30.08 in 10.0 mi SSW 13.8 mph - N/A   Clear
2:56 PM 77.0 °F 62.1 °F 60% 30.06 in 10.0 mi SSW 12.7 mph - N/A   Partly Cloudy
3:56 PM 75.9 °F 62.1 °F 62% 30.04 in 10.0 mi South 12.7 mph - N/A   Scattered Clouds
4:56 PM 75.0 °F 63.0 °F 66% 30.03 in 10.0 mi South 13.8 mph - N/A   Scattered Clouds
5:56 PM 73.9 °F 62.1 °F 66% 30.01 in 10.0 mi South 15.0 mph - N/A   Scattered Clouds
6:56 PM 72.0 °F 62.1 °F 71% 30.01 in 10.0 mi South 15.0 mph - N/A   Clear
7:56 PM 71.1 °F 62.1 °F 73% 30.01 in 10.0 mi South 12.7 mph - N/A   Clear
8:56 PM 71.1 °F 64.0 °F 78% 30.01 in 10.0 mi South 11.5 mph - N/A   Clear
9:56 PM 72.0 °F 64.9 °F 78% 30.01 in 10.0 mi South 15.0 mph - N/A   Clear
10:56 PM 73.0 °F 66.0 °F 79% 29.99 in 10.0 mi South 16.1 mph - N/A   Clear
11:56 PM 73.0 °F 66.0 °F 79% 29.98 in 10.0 mi SSW 16.1 mph - N/A   Clear